| time (UTC) | temp F | wind direction | speed MPH | gust MPH | rain 1hr in | rain 24hr in | rain mn in | humidity % | barometer mb |
| 20260505194601 | 59 | 274 | 7.0 | 23.0 | 0.00 | 0.00 | 0.00 | 42 | 999.4 |
| 20260505193050 | 60 | 260 | 7.0 | 17.0 | 0.00 | 0.00 | 0.00 | 40 | 999.4 |
| 20260505191553 | 60 | 202 | 8.0 | 17.0 | 0.00 | 0.00 | 0.00 | 39 | 999.4 |
| 20260505190054 | 62 | 269 | 8.0 | 19.0 | 0.00 | 0.00 | 0.00 | 36 | 999.6 |
| 20260505184545 | 60 | 219 | 4.0 | 9.0 | 0.00 | 0.00 | 0.00 | 39 | 999.5 |
| 20260505183049 | 59 | 274 | 5.0 | 13.0 | 0.00 | 0.00 | 0.00 | 39 | 999.8 |
| 20260505181545 | 57 | 304 | 2.0 | 9.0 | 0.00 | 0.00 | 0.00 | 41 | 999.6 |
| 20260505180043 | 59 | 225 | 5.0 | 10.0 | 0.00 | 0.00 | 0.00 | 38 | 999.8 |
| 20260505174546 | 57 | 283 | 4.0 | 13.0 | 0.00 | 0.00 | 0.00 | 40 | 1000.1 |
| 20260505173047 | 59 | 290 | 6.0 | 12.0 | 0.00 | 0.00 | 0.00 | 37 | 1000.1 |
| 20260505171541 | 59 | 236 | 4.0 | 10.0 | 0.00 | 0.00 | 0.00 | 37 | 1000.0 |
| 20260505170040 | 56 | 216 | 1.0 | 11.0 | 0.00 | 0.00 | 0.00 | 37 | 1000.2 |
| 20260505164538 | 56 | 28 | 3.0 | 13.0 | 0.00 | 0.00 | 0.00 | 37 | 1000.3 |
| 20260505163035 | 56 | 257 | 5.0 | 11.0 | 0.00 | 0.00 | 0.00 | 39 | 1000.5 |
| 20260505161532 | 55 | 301 | 6.0 | 12.0 | 0.00 | 0.00 | 0.00 | 41 | 1000.7 |
| 20260505153030 | 54 | 279 | 9.0 | 18.0 | 0.00 | 0.00 | 0.00 | 43 | 1000.8 |
| 20260505151529 | 54 | 288 | 8.0 | 14.0 | 0.00 | 0.00 | 0.00 | 41 | 1000.7 |
| 20260505124515 | 48 | 328 | 4.0 | 7.0 | 0.00 | 0.00 | 0.00 | 44 | 1000.7 |
| 20260505123011 | 48 | 351 | 2.0 | 6.0 | 0.00 | 0.00 | 0.00 | 44 | 1000.8 |
| 20260505121610 | 48 | 44 | 3.0 | 6.0 | 0.00 | 0.00 | 0.00 | 44 | 1000.5 |
| 20260505120006 | 49 | 293 | 3.0 | 10.0 | 0.00 | 0.00 | 0.00 | 42 | 1000.2 |
| 20260505114502 | 50 | 281 | 5.0 | 13.0 | 0.00 | 0.00 | 0.00 | 39 | 999.7 |
| 20260505113059 | 51 | 274 | 7.0 | 12.0 | 0.00 | 0.00 | 0.00 | 39 | 1000.2 |
| 20260505111557 | 51 | 264 | 5.0 | 11.0 | 0.00 | 0.00 | 0.00 | 39 | 1000.4 |
| 20260505110105 | 52 | 264 | 7.0 | 12.0 | 0.00 | 0.00 | 0.00 | 37 | 1000.1 |
| 20260505101548 | 52 | 260 | 5.0 | 9.0 | 0.00 | 0.00 | 0.00 | 39 | 1000.3 |
| 20260505100047 | 52 | 239 | 4.0 | 10.0 | 0.00 | 0.00 | 0.00 | 39 | 1000.2 |
| 20260505094543 | 52 | 260 | 4.0 | 8.0 | 0.00 | 0.00 | 0.00 | 39 | 1000.2 |
| 20260505093040 | 53 | 243 | 5.0 | 11.0 | 0.00 | 0.00 | 0.00 | 37 | 1000.4 |
| 20260505091539 | 53 | 250 | 4.0 | 10.0 | 0.00 | 0.00 | 0.00 | 37 | 1000.3 |
| 20260505090037 | 54 | 271 | 4.0 | 9.0 | 0.00 | 0.00 | 0.00 | 35 | 1000.4 |
| 20260505084542 | 55 | 296 | 5.0 | 14.0 | 0.00 | 0.00 | 0.00 | 34 | 1000.5 |
| 20260505083032 | 55 | 262 | 6.0 | 13.0 | 0.00 | 0.00 | 0.00 | 33 | 1000.3 |
| 20260505081530 | 56 | 303 | 9.0 | 16.0 | 0.00 | 0.00 | 0.00 | 32 | 1000.9 |
| 20260505080026 | 56 | 264 | 7.0 | 15.0 | 0.00 | 0.00 | 0.00 | 31 | 1000.9 |
| 20260505074524 | 56 | 265 | 5.0 | 10.0 | 0.00 | 0.00 | 0.00 | 30 | 1001.1 |
| 20260505073033 | 56 | 281 | 5.0 | 13.0 | 0.00 | 0.00 | 0.00 | 30 | 1000.9 |
| 20260505071519 | 57 | 231 | 5.0 | 12.0 | 0.00 | 0.00 | 0.00 | 29 | 1000.6 |
| 20260505070029 | 57 | 276 | 6.0 | 16.0 | 0.00 | 0.00 | 0.00 | 28 | 1000.5 |
| 20260505064515 | 58 | 300 | 9.0 | 15.0 | 0.00 | 0.00 | 0.00 | 28 | 1000.7 |
| 20260505063014 | 57 | 260 | 6.0 | 15.0 | 0.00 | 0.00 | 0.00 | 28 | 1000.8 |
| 20260505061514 | 57 | 274 | 5.0 | 10.0 | 0.00 | 0.00 | 0.00 | 29 | 1000.9 |
| 20260505060007 | 58 | 276 | 5.0 | 11.0 | 0.00 | 0.00 | 0.00 | 28 | 1001.1 |
| 20260505054506 | 57 | 293 | 4.0 | 8.0 | 0.00 | 0.00 | 0.00 | 30 | 1000.9 |
| 20260505053005 | 57 | 258 | 3.0 | 7.0 | 0.00 | 0.00 | 0.00 | 30 | 1000.8 |
| 20260505051508 | 58 | 281 | 4.0 | 9.0 | 0.00 | 0.00 | 0.00 | 29 | 1000.7 |
| 20260505041504 | 57 | 213 | 0.0 | 3.0 | 0.00 | 0.00 | 0.00 | 29 | 1001.0 |
| 20260505040006 | 57 | 300 | 1.0 | 4.0 | 0.00 | 0.00 | 0.00 | 29 | 1001.0 |
| 20260505034503 | 57 | 284 | 1.0 | 4.0 | 0.00 | 0.00 | 0.00 | 29 | 1000.9 |
| 20260505033003 | 59 | 269 | 2.0 | 7.0 | 0.00 | 0.00 | 0.00 | 27 | 1000.9 |
| 20260505031503 | 60 | 291 | 4.0 | 9.0 | 0.00 | 0.00 | 0.00 | 26 | 1000.6 |
| 20260505030002 | 61 | 305 | 3.0 | 12.0 | 0.00 | 0.00 | 0.00 | 24 | 1000.3 |
| 20260505024501 | 62 | 317 | 4.0 | 12.0 | 0.00 | 0.00 | 0.00 | 23 | 1000.1 |
| 20260505023003 | 63 | 309 | 6.0 | 12.0 | 0.00 | 0.00 | 0.00 | 22 | 1000.1 |
| 20260505021601 | 63 | 340 | 7.0 | 14.0 | 0.00 | 0.00 | 0.00 | 21 | 999.9 |
| 20260505020101 | 64 | 274 | 8.0 | 19.0 | 0.00 | 0.00 | 0.00 | 19 | 999.8 |
| 20260505014609 | 65 | 323 | 8.0 | 15.0 | 0.00 | 0.00 | 0.00 | 18 | 999.7 |
| 20260505013058 | 65 | 284 | 9.0 | 20.0 | 0.00 | 0.00 | 0.00 | 17 | 999.5 |
| 20260505011606 | 66 | 228 | 7.0 | 15.0 | 0.00 | 0.00 | 0.00 | 16 | 999.2 |
| 20260505010057 | 67 | 283 | 9.0 | 20.0 | 0.00 | 0.00 | 0.00 | 16 | 999.3 |
| 20260505004556 | 68 | 311 | 9.0 | 16.0 | 0.00 | 0.00 | 0.00 | 16 | 999.5 |
| 20260505003055 | 68 | 283 | 7.0 | 18.0 | 0.00 | 0.00 | 0.00 | 15 | 999.5 |
| 20260505001554 | 68 | 281 | 9.0 | 19.0 | 0.00 | 0.00 | 0.00 | 16 | 999.6 |
| 20260505000107 | 69 | 281 | 7.0 | 15.0 | 0.00 | 0.00 | 0.00 | 16 | 999.7 |
| 20260504234552 | 69 | 285 | 5.0 | 17.0 | 0.00 | 0.00 | 0.00 | 17 | 999.8 |
| 20260504233106 | 70 | 281 | 9.0 | 16.0 | 0.00 | 0.00 | 0.00 | 17 | 999.7 |
| 20260504231551 | 71 | 257 | 9.0 | 19.0 | 0.00 | 0.00 | 0.00 | 16 | 999.7 |
| 20260504230049 | 71 | 300 | 9.0 | 19.0 | 0.00 | 0.00 | 0.00 | 16 | 999.9 |
| 20260504224553 | 71 | 276 | 8.0 | 18.0 | 0.00 | 0.00 | 0.00 | 16 | 1000.0 |
| 20260504223100 | 72 | 304 | 7.0 | 17.0 | 0.00 | 0.00 | 0.00 | 16 | 1000.2 |
| 20260504221544 | 71 | 297 | 9.0 | 17.0 | 0.00 | 0.00 | 0.00 | 16 | 1000.5 |
| 20260504220042 | 70 | 279 | 8.0 | 21.0 | 0.00 | 0.00 | 0.00 | 16 | 1000.9 |
| 20260504214541 | 71 | 259 | 12.0 | 22.0 | 0.00 | 0.00 | 0.00 | 16 | 1000.7 |
| 20260504213051 | 72 | 290 | 12.0 | 24.0 | 0.00 | 0.00 | 0.00 | 15 | 1001.1 |
| 20260504211538 | 72 | 264 | 12.0 | 25.0 | 0.00 | 0.00 | 0.00 | 15 | 1001.1 |
| 20260504210039 | 72 | 286 | 13.0 | 24.0 | 0.00 | 0.00 | 0.00 | 15 | 1001.8 |
| 20260504204543 | 71 | 302 | 14.0 | 26.0 | 0.00 | 0.00 | 0.00 | 15 | 1002.2 |
| 20260504203035 | 73 | 286 | 12.0 | 27.0 | 0.00 | 0.00 | 0.00 | 13 | 1002.4 |
| 20260504201528 | 70 | 279 | 9.0 | 21.0 | 0.00 | 0.00 | 0.00 | 14 | 1002.7 |
| 20260504200027 | 68 | 257 | 10.0 | 21.0 | 0.00 | 0.00 | 0.00 | 15 | 1002.6 |